星链-32350 (STARLINK-32350)

导读

STARLINK-32350是美国太空探索技术公司SpaceX星链星座的卫星,于2024年9月13日发射入轨,归属第二代星链卫星组网,承担全球卫星互联网通信服务覆盖任务。星链计划通过批量发射低轨卫星,搭建低延迟、广覆盖的天基通信网络,该卫星是星链系统扩容组网的组成部分。

基本信息
目录编号:
61063
目录名称:
STARLINK-32350
国际标识:
2024-164P
轨道中心:
EARTH
卫星名称:
星链-32350
卫星全名:
星链-32350 (STARLINK-32350)
卫星状态:
在轨 (已飞行642 天)
发射日期:
2024-09-13 UTC
国别 :
美国 (US)
星等 :
--
轨道信息
数据来源 国际轨道数据 AOE轨道数据
星历时间 2026-06-17T13:34:51+0800
17小时前
查看轨道信息
2026-06-15T11:00:00+0800
2天前
查看轨道信息
半长轴 6848.957km 6848.875km
偏心率 0.0001362 0.0001336
轨道倾角 53.161° 53.159°
近地点辐角 89.497° 74.037°
升交点赤经 348.358° 358.168°
平近点角 270.619° 178.438°
近地点 469.887km 469.822km
远地点 471.753km 471.654km
周期 94.015分钟 94.013分钟
每日圈数 15.316734 15.31701
详细信息
固有亮度:
5
最大亮度:
2.5
卫星平台:
Starlink V1.0
覆盖范围:
全球
运营商:
太空探索技术公司
运营商所在国:
美国
制造商(研发单位):
太空探索技术公司
制造商所在国:
美国
使用方式:
暂无
卫星简介
Starlink 计划是 SpaceX 推出的全球卫星互联网项目,通过发射低轨道卫星,为全球尤其是偏远地区提供高速、低延迟的互联网服务。自 2019 年起,Starlink 已部署数千颗卫星,旨在缩小全球数字鸿沟,推动互联网普及。该项目还为军事、航空等行业提供通信支持,带来广泛经济效益。
2D轨道图
3D轨道图
轨道高度分析图
轨道倾角分析图
轨道综合分析图
查看轨道综合分析图